{"data":{"norad_id":59748,"intl_designator":"2024-090U","name":"STARLINK-31640","alt_names":[],"object_type":"PAYLOAD","status":"ACTIVE","operator":null,"country":"US","launch_date":"2024-05-13","launch_site_code":"AFETR","launch_vehicle":null,"mission":null,"orbit_class":"UNKNOWN","rcs_meters":null,"size_class":null,"mass_kg":null,"dimensions":null,"purposes":["comms"],"wikipedia_slug":null,"has_3d_model":false,"image_url":null,"decayed_at":null,"tle_current":{"epoch":"2026-05-24T22:57:49.381056Z","epoch_age_seconds":82069,"freshness":"FRESH","line1":"1 59748U 24090U   26144.95682154  .00000322  00000+0  21235-4 0  9998","line2":"2 59748  43.0023 112.8254 0001018 268.0999  91.9736 15.27576427115102","mean_motion":15.27576427,"eccentricity":0.0001018,"inclination_deg":43.0023,"raan_deg":112.8254,"arg_perigee_deg":268.0999,"mean_anomaly_deg":91.9736,"bstar":2.1235e-5,"rev_number":11510,"period_min":94.266969203499,"perigee_km":482.36132507416,"apogee_km":483.75826474161,"semimajor_km":6861.1967949079,"source":"CELESTRAK","updated_at":"2026-05-25T13:38:19.054312Z"}}}